Home   Weather   Cúcuta   Past weeks

Flag for Colombia Past Weather in Cúcuta, Colombia — Yesterday and Last 2 Weeks

Now
82 °F

Thunderstorms. Passing clouds.


Feels Like: 88 °F
Forecast: N/A
Wind: 6 mph from Northwest

Location: Cucuta / Camilo Daza

Current Time: Nov 17, 2017 at 6:24:16 pm

Latest Report: Nov 17, 2017 at 6:00 pm


Visibility: N/A

Pressure: 29.77 "Hg

Humidity: 74%

Dew Point: 73 °F

Location of CúcutaLocation

Past Weather in Cúcuta — Graph

°F

Cúcuta Temperature Yesterday

Maximum temperature yesterday: 88 °F (at 12:00 pm)
Minimum temperature yesterday: 72 °F (at 12:00 am)
Average temperature yesterday: 81 °F

High & Low Weather Summary for the Past Weeks

 TemperatureHumidityPressure
High95 °F (Nov 12, 12:00 pm)100% (Nov 5, 5:00 am)29.97 "Hg (Nov 5, 5:00 am)
Low72 °F (Nov 6, 5:30 am)34% (Nov 12, 12:00 pm)29.68 "Hg (Nov 13, 3:00 pm)
Average82 °F72%29.82 "Hg
* Reported Nov 2 5:00 pm — Nov 17 5:00 pm, Cúcuta. Weather by CustomWeather, © 2017

Note: Actual official high and low records may vary slightly from our data, if they occured in-between our weather recording intervals... More about our weather records

Advertising

Cúcuta Weather History for the Previous 24 Hours

Scroll right to see more
 ConditionsComfort  
Time TempWeatherWind HumidityBarometerVisibility
5:00 pm
Fri, Nov 17
84 °FScattered showers. Scattered clouds.7 mph70%29.76 "HgN/A
4:00 pm86 °FScattered showers. Scattered clouds.12 mph66%29.74 "HgN/A
3:00 pm86 °FScattered clouds.9 mph66%29.75 "HgN/A
2:00 pm86 °FScattered clouds.13 mph66%29.77 "HgN/A
1:00 pm86 °FScattered clouds.13 mph70%29.80 "HgN/A
12:00 pm88 °FScattered clouds.9 mph59%29.84 "HgN/A
11:00 am86 °FScattered clouds.7 mph59%29.87 "HgN/A
10:00 am84 °FScattered clouds.5 mph70%29.90 "HgN/A
9:00 am82 °FScattered clouds.5 mph70%29.92 "HgN/A
8:00 am79 °FScattered clouds.5 mph89%29.92 "HgN/A
7:00 am75 °FDrizzle. Fog.2 mph100%29.91 "Hg4 mi
6:00 am73 °FDrizzle. Fog.2 mph100%29.90 "Hg3 mi
5:35 am73 °FPartly cloudy.No wind100%29.90 "Hg3 mi
5:00 am73 °FLight rain. Partly cloudy.No wind100%29.89 "HgN/A
12:00 am79 °FPartly cloudy.2 mph79%29.90 "HgN/A
11:00 pm
Thu, Nov 16
77 °FPartly cloudy.7 mph83%29.88 "HgN/A
10:00 pm79 °FPartly cloudy.5 mph79%29.89 "HgN/A
9:00 pm79 °FPartly cloudy.3 mph79%29.87 "HgN/A
8:00 pm79 °FPartly cloudy.6 mph79%29.85 "HgN/A
7:00 pm81 °FPartly cloudy.8 mph74%29.83 "HgN/A
6:00 pm82 °FThunderstorms. Partly cloudy.6 mph66%29.82 "HgN/A
Weather by CustomWeather, © 2017

See weather overview